| time (UTC) | temp C | wind direction | speed KPH | gust KPH | rain 1hr cm | rain 24hr cm | rain mn cm | humidity % | barometer mb |
| 20260504030804 | 20 | 145 | 4.8 | 4.8 | 0.00 | 0.08 | 0.00 | 42 | 1009.5 |
| 20260504030304 | 20 | 145 | 4.8 | 11.3 | 0.00 | 0.08 | 0.00 | 42 | 1009.5 |
| 20260504025804 | 20 | 167 | 6.4 | 11.3 | 0.00 | 0.08 | 0.00 | 42 | 1009.5 |
| 20260504025304 | 20 | 145 | 8.0 | 8.0 | 0.00 | 0.08 | 0.00 | 41 | 1009.5 |
| 20260504024304 | 20 | 145 | 8.0 | 9.7 | 0.00 | 0.08 | 0.00 | 41 | 1009.3 |
| 20260504023805 | 20 | 145 | 8.0 | 9.7 | 0.00 | 0.08 | 0.00 | 40 | 1009.3 |
| 20260504022304 | 21 | 145 | 4.8 | 11.3 | 0.00 | 0.08 | 0.00 | 40 | 1009.0 |
| 20260504021804 | 21 | 167 | 3.2 | 9.7 | 0.00 | 0.08 | 0.00 | 39 | 1009.0 |
| 20260504021304 | 21 | 188 | 3.2 | 9.7 | 0.00 | 0.08 | 0.00 | 39 | 1009.0 |
| 20260504020804 | 21 | 145 | 4.8 | 8.0 | 0.00 | 0.08 | 0.00 | 39 | 1009.2 |
| 20260504020304 | 21 | 145 | 4.8 | 8.0 | 0.00 | 0.08 | 0.00 | 39 | 1009.2 |
| 20260504015804 | 21 | 145 | 1.6 | 8.0 | 0.00 | 0.08 | 0.00 | 39 | 1009.2 |
| 20260504014804 | 21 | 303 | 1.6 | 4.8 | 0.00 | 0.08 | 0.00 | 38 | 1008.8 |
| 20260504014304 | 22 | 157 | 1.6 | 9.7 | 0.00 | 0.08 | 0.00 | 38 | 1008.8 |
| 20260504013805 | 22 | 303 | 1.6 | 0.0 | 0.00 | 0.08 | 0.00 | 38 | 1008.8 |
| 20260504013304 | 22 | 189 | 3.2 | 4.8 | 0.00 | 0.08 | 0.00 | 38 | 1008.8 |
| 20260504012806 | 22 | 167 | 3.2 | 4.8 | 0.00 | 0.08 | 0.00 | 38 | 1008.5 |
| 20260504012304 | 22 | 168 | 1.6 | 4.8 | 0.00 | 0.08 | 0.00 | 37 | 1008.5 |
| 20260504011806 | 22 | 197 | 4.8 | 11.3 | 0.00 | 0.08 | 0.00 | 36 | 1008.7 |
| 20260503235304 | 25 | 253 | 11.3 | 37.0 | 0.00 | 0.08 | 0.00 | 27 | 1009.2 |
| 20260503233804 | 25 | 167 | 4.8 | 11.3 | 0.00 | 0.08 | 0.00 | 26 | 1009.2 |
| 20260503233305 | 25 | 171 | 9.7 | 11.3 | 0.00 | 0.08 | 0.00 | 28 | 1009.2 |
| 20260503232306 | 26 | 100 | 11.3 | 19.3 | 0.00 | 0.08 | 0.00 | 27 | 1009.0 |
| 20260503231806 | 26 | 325 | 11.3 | 25.7 | 0.00 | 0.08 | 0.00 | 27 | 1009.0 |
| 20260503231316 | 26 | 145 | 11.3 | 25.7 | 0.00 | 0.08 | 0.00 | 26 | 1009.0 |
| 20260503230804 | 27 | 145 | 11.3 | 24.1 | 0.00 | 0.08 | 0.00 | 24 | 1009.4 |
| 20260503230301 | 27 | 153 | 11.3 | 16.1 | 0.00 | 0.08 | 0.00 | 24 | 1009.4 |
| 20260503225804 | 28 | 21 | 9.7 | 19.3 | 0.00 | 0.08 | 0.00 | 24 | 1009.4 |
| 20260503224802 | 27 | 213 | 11.3 | 22.5 | 0.00 | 0.08 | 0.00 | 24 | 1009.2 |
| 20260503224302 | 27 | 157 | 12.9 | 27.4 | 0.00 | 0.08 | 0.00 | 24 | 1009.2 |
| 20260503222801 | 27 | 145 | 14.5 | 22.5 | 0.00 | 0.08 | 0.00 | 24 | 1009.3 |
| 20260503222301 | 27 | 157 | 12.9 | 27.4 | 0.00 | 0.08 | 0.00 | 24 | 1009.3 |
| 20260503221801 | 28 | 190 | 11.3 | 24.1 | 0.00 | 0.08 | 0.00 | 22 | 1009.3 |
| 20260503221302 | 27 | 137 | 12.9 | 19.3 | 0.00 | 0.08 | 0.00 | 25 | 1009.3 |
| 20260503220802 | 27 | 145 | 11.3 | 19.3 | 0.00 | 0.08 | 0.00 | 24 | 1009.5 |
| 20260503220302 | 27 | 145 | 12.9 | 22.5 | 0.00 | 0.08 | 0.00 | 24 | 1009.5 |
| 20260503215801 | 27 | 167 | 14.5 | 27.4 | 0.00 | 0.08 | 0.00 | 26 | 1009.5 |
| 20260503215301 | 27 | 145 | 14.5 | 27.4 | 0.00 | 0.08 | 0.00 | 25 | 1009.5 |
| 20260503213802 | 27 | 145 | 14.5 | 22.5 | 0.00 | 0.08 | 0.00 | 26 | 1009.4 |
| 20260503212801 | 27 | 10 | 16.1 | 22.5 | 0.00 | 0.08 | 0.00 | 27 | 1009.7 |
| 20260503212301 | 26 | 145 | 14.5 | 27.4 | 0.00 | 0.08 | 0.00 | 26 | 1009.7 |
| 20260503211802 | 27 | 145 | 14.5 | 22.5 | 0.00 | 0.08 | 0.00 | 26 | 1009.7 |
| 20260503211302 | 27 | 155 | 16.1 | 20.9 | 0.00 | 0.08 | 0.00 | 27 | 1009.7 |
| 20260503210801 | 26 | 190 | 16.1 | 27.4 | 0.00 | 0.08 | 0.00 | 27 | 1009.9 |
| 20260503210301 | 26 | 145 | 14.5 | 33.8 | 0.00 | 0.08 | 0.00 | 27 | 1009.9 |
| 20260503205802 | 26 | 145 | 12.9 | 33.8 | 0.00 | 0.08 | 0.00 | 27 | 1009.9 |
| 20260503205303 | 26 | 145 | 12.9 | 22.5 | 0.00 | 0.08 | 0.00 | 27 | 1009.9 |
| 20260503204801 | 26 | 145 | 14.5 | 32.2 | 0.00 | 0.08 | 0.00 | 28 | 1010.5 |
| 20260503204302 | 26 | 145 | 16.1 | 33.8 | 0.00 | 0.08 | 0.00 | 28 | 1010.5 |
| 20260503203802 | 26 | 145 | 12.9 | 35.4 | 0.00 | 0.08 | 0.00 | 28 | 1010.5 |
| 20260503203301 | 26 | 134 | 11.3 | 19.3 | 0.00 | 0.08 | 0.00 | 29 | 1010.5 |
| 20260503202301 | 26 | 145 | 17.7 | 29.0 | 0.00 | 0.08 | 0.00 | 28 | 1011.0 |
| 20260503200802 | 25 | 167 | 14.5 | 29.0 | 0.00 | 0.08 | 0.00 | 28 | 1011.3 |
| 20260503200301 | 26 | 145 | 14.5 | 29.0 | 0.00 | 0.08 | 0.00 | 29 | 1011.3 |
| 20260503195301 | 25 | 167 | 14.5 | 27.4 | 0.00 | 0.08 | 0.00 | 27 | 1011.3 |
| 20260503194802 | 25 | 280 | 14.5 | 20.9 | 0.00 | 0.08 | 0.00 | 27 | 1012.0 |
| 20260503194302 | 25 | 219 | 16.1 | 19.3 | 0.00 | 0.08 | 0.00 | 28 | 1012.0 |
| 20260503193802 | 24 | 145 | 16.1 | 24.1 | 0.00 | 0.08 | 0.00 | 29 | 1012.0 |
| 20260503193302 | 24 | 168 | 16.1 | 32.2 | 0.00 | 0.08 | 0.00 | 28 | 1012.0 |
| 20260503192801 | 24 | 190 | 14.5 | 22.5 | 0.00 | 0.08 | 0.00 | 29 | 1012.6 |
| 20260503192305 | 21 | 145 | 11.3 | 4.8 | 0.00 | 0.08 | 0.00 | 39 | 1015.4 |
| 20260503175302 | 20 | 167 | 12.9 | 22.5 | 0.00 | 0.08 | 0.00 | 38 | 1015.4 |
| 20260503174801 | 20 | 167 | 14.5 | 22.5 | 0.00 | 0.08 | 0.00 | 38 | 1016.1 |
| 20260503174301 | 19 | 205 | 16.1 | 32.2 | 0.00 | 0.08 | 0.00 | 38 | 1016.1 |
| 20260503173801 | 19 | 145 | 17.7 | 32.2 | 0.00 | 0.08 | 0.00 | 39 | 1016.1 |
| 20260503173302 | 18 | 145 | 16.1 | 24.1 | 0.00 | 0.08 | 0.00 | 39 | 1016.1 |
| 20260503172802 | 18 | 123 | 12.9 | 49.9 | 0.00 | 0.08 | 0.00 | 39 | 1016.4 |
| 20260503171802 | 18 | 145 | 14.5 | 27.4 | 0.00 | 0.08 | 0.00 | 40 | 1016.3 |
| 20260503171303 | 18 | 239 | 12.9 | 29.0 | 0.00 | 0.08 | 0.00 | 41 | 1016.3 |
| 20260503170803 | 18 | 167 | 14.5 | 29.0 | 0.00 | 0.08 | 0.00 | 41 | 1016.1 |
| 20260503170303 | 18 | 140 | 14.5 | 27.4 | 0.00 | 0.08 | 0.00 | 41 | 1016.1 |
| 20260503150802 | 14 | 145 | 9.7 | 20.9 | 0.00 | 0.08 | 0.00 | 55 | 1018.1 |
| 20260503150302 | 14 | 185 | 9.7 | 12.9 | 0.00 | 0.08 | 0.00 | 56 | 1018.1 |
| 20260503131302 | 10 | 135 | 9.7 | 16.1 | 0.00 | 0.08 | 0.00 | 66 | 1019.4 |
| 20260503130802 | 10 | 145 | 4.8 | 16.1 | 0.00 | 0.08 | 0.00 | 67 | 1019.5 |
| 20260503130302 | 10 | 154 | 6.4 | 12.9 | 0.00 | 0.08 | 0.00 | 68 | 1019.5 |
| 20260503080802 | 8 | 213 | 0.0 | 0.0 | 0.00 | 0.08 | 0.00 | 76 | 1019.5 |
| 20260503080302 | 8 | 257 | 0.0 | 0.0 | 0.00 | 0.08 | 0.00 | 76 | 1019.5 |
| 20260503072803 | 8 | 190 | 0.0 | 0.0 | 0.00 | 0.08 | 0.00 | 75 | 1020.0 |
| 20260503071802 | 8 | 347 | 0.0 | 0.0 | 0.00 | 0.08 | 0.00 | 74 | 1020.0 |
| 20260503071302 | 8 | 151 | 0.0 | 0.0 | 0.00 | 0.08 | 0.00 | 73 | 1020.0 |
| 20260503070302 | 8 | 251 | 0.0 | 0.0 | 0.00 | 0.08 | 0.00 | 73 | 1020.0 |
| 20260503060303 | 8 | 145 | 0.0 | 0.0 | 0.00 | 0.08 | 0.00 | 70 | 1020.3 |
| 20260503054802 | 8 | 145 | 0.0 | 0.0 | 0.00 | 0.08 | 0.00 | 69 | 1020.1 |
| 20260503054302 | 8 | 145 | 0.0 | 0.0 | 0.00 | 0.08 | 0.00 | 69 | 1020.1 |
| 20260503053802 | 8 | 145 | 0.0 | 0.0 | 0.00 | 0.08 | 0.00 | 68 | 1020.1 |
| 20260503053303 | 8 | 145 | 0.0 | 0.0 | 0.00 | 0.08 | 0.00 | 68 | 1020.1 |
| 20260503052803 | 8 | 145 | 0.0 | 0.0 | 0.00 | 0.08 | 0.00 | 68 | 1020.3 |
| 20260503051803 | 8 | 145 | 0.0 | 0.0 | 0.00 | 0.08 | 0.00 | 67 | 1020.3 |
| 20260503051302 | 8 | 145 | 0.0 | 0.0 | 0.00 | 0.08 | 0.00 | 67 | 1020.3 |
| 20260503050819 | 8 | 145 | 0.0 | 0.0 | 0.00 | 0.08 | 0.00 | 66 | 1020.2 |
| 20260503050303 | 8 | 145 | 0.0 | 0.0 | 0.00 | 0.08 | 0.00 | 66 | 1020.2 |
| 20260503045802 | 8 | 145 | 0.0 | 0.0 | 0.00 | 0.08 | 0.08 | 65 | 1020.2 |
| 20260503045304 | 8 | 145 | 0.0 | 0.0 | 0.00 | 0.08 | 0.08 | 65 | 1020.2 |
| 20260503044802 | 9 | 145 | 0.0 | 0.0 | 0.00 | 0.08 | 0.08 | 65 | 1020.3 |
| 20260503043802 | 9 | 167 | 0.0 | 0.0 | 0.00 | 0.08 | 0.08 | 64 | 1020.3 |
| 20260503042803 | 9 | 167 | 0.0 | 0.0 | 0.00 | 0.08 | 0.08 | 64 | 1019.6 |
| 20260503042304 | 9 | 167 | 0.0 | 0.0 | 0.00 | 0.08 | 0.08 | 64 | 1019.6 |
| 20260503041302 | 9 | 167 | 0.0 | 0.0 | 0.00 | 0.08 | 0.08 | 63 | 1019.6 |
| 20260503040802 | 10 | 167 | 0.0 | 0.0 | 0.00 | 0.08 | 0.08 | 62 | 1019.9 |
| 20260503040302 | 10 | 167 | 0.0 | 0.0 | 0.00 | 0.08 | 0.08 | 62 | 1019.9 |
| 20260503035802 | 10 | 167 | 0.0 | 0.0 | 0.00 | 0.08 | 0.08 | 61 | 1019.9 |
| 20260503034803 | 10 | 167 | 0.0 | 0.0 | 0.00 | 0.08 | 0.08 | 60 | 1019.9 |
| 20260503034302 | 10 | 167 | 0.0 | 0.0 | 0.00 | 0.08 | 0.08 | 60 | 1019.9 |
| 20260503033302 | 10 | 167 | 0.0 | 0.0 | 0.00 | 0.08 | 0.08 | 59 | 1019.9 |
| 20260503032304 | 10 | 173 | 0.0 | 0.0 | 0.00 | 0.08 | 0.08 | 59 | 1020.1 |
| 20260503031802 | 10 | 145 | 0.0 | 0.0 | 0.00 | 0.08 | 0.08 | 57 | 1020.1 |
| 20260503031302 | 10 | 145 | 0.0 | 0.0 | 0.00 | 0.08 | 0.08 | 57 | 1020.1 |